Hauptseite
METAR-TAF:

METAR-TAF

Flughäfen :

Flughafen Dijon-Bourgogne

Dijon, Frankreich

Breite: 47-16N, Länge: 005-05E, Höhe: 222 m

Beobachtung

Neuester Wetterbericht von vor 22 Minuten, um 23:30 UTC
Wind 6 kt aus Süd
Temperatur 0°C
Luftfeuchtigkeit 93%
Luftdruck 1001 hPa
Sichtweite: 4100 m
Geschlossene Wolkendecke in der Höhe von 400 ft
feuchter Dunst

METAR: LFSD 222330Z AUTO 18006KT 4100 BR OVC004 M00/M01 Q1001

Zeit: 00:52 (23:52 UTC)


TAF: fehlend

Wetterbeobachtungen und Prognosen von mehr als 4000 Flughäfen (METAR und TAF Bericht).

Die verfügbaren Stationen werden durch gelbe und rote Markierungen auf der Karte dargestellt.

Führen Sie die Maus auf sie, um den Namen der Station zu sehen.

Darauf klicken, um die Beobachtung von Wetterbeobachtungen und Prognosen zu sehen.

Um die Karte zu ändern : klicken Sie auf den grünen Tasten mit einem schwarzen Kreuz Zum Vergrößern, auf den grünen Button mit einem Gedankenstrich zu verkleinern, oder auf die grünen Pfeile für benachbarte Karten.


METAR-TAF: